Year,Month,Day,Hour,Minute,Value (Times are PST for temperature in C)
2017,02,10,14,23,4.10
2017,02,10,14,24,4.00
2017,02,10,14,25,4.00
2017,02,10,14,26,3.90
2017,02,10,14,27,3.90
2017,02,10,14,28,3.80
2017,02,10,14,29,3.70
2017,02,10,14,30,3.70
2017,02,10,14,31,3.60
2017,02,10,14,32,3.60
2017,02,10,14,33,3.50
2017,02,10,14,34,3.40
2017,02,10,14,35,3.30
2017,02,10,14,36,3.30
2017,02,10,14,37,3.30
2017,02,10,14,38,3.30
2017,02,10,14,39,3.40
2017,02,10,14,40,3.40
2017,02,10,14,41,3.50
2017,02,10,14,42,3.50
2017,02,10,14,43,3.50
2017,02,10,14,44,3.50
2017,02,10,14,45,3.50
2017,02,10,14,46,3.50
2017,02,10,14,47,3.50
2017,02,10,14,48,3.40
2017,02,10,14,49,3.40
2017,02,10,14,50,3.40
2017,02,10,14,51,3.40
2017,02,10,14,52,3.40
2017,02,10,14,53,3.40
2017,02,10,14,54,3.40
2017,02,10,14,55,3.40
2017,02,10,14,56,3.40
2017,02,10,14,57,3.40
2017,02,10,14,58,3.40
2017,02,10,14,59,3.40
2017,02,10,15,00,3.40
2017,02,10,15,01,3.40
2017,02,10,15,02,3.40
2017,02,10,15,03,3.50
2017,02,10,15,04,3.50
2017,02,10,15,05,3.60
2017,02,10,15,06,3.70
2017,02,10,15,07,3.70
2017,02,10,15,08,3.70
2017,02,10,15,09,3.60
2017,02,10,15,10,3.60
2017,02,10,15,11,3.60
2017,02,10,15,12,3.70
2017,02,10,15,13,3.70
2017,02,10,15,14,3.70
2017,02,10,15,15,3.70
2017,02,10,15,16,3.70
2017,02,10,15,17,3.60
2017,02,10,15,18,3.60
2017,02,10,15,19,3.60
2017,02,10,15,20,3.60
2017,02,10,15,21,3.60
2017,02,10,15,22,3.60
2017,02,10,15,23,3.70
2017,02,10,15,24,3.70
2017,02,10,15,25,3.70
2017,02,10,15,26,3.80
2017,02,10,15,27,3.80
2017,02,10,15,28,3.80
2017,02,10,15,29,3.90
2017,02,10,15,30,3.80
2017,02,10,15,31,3.80
2017,02,10,15,32,3.80
2017,02,10,15,33,3.90
2017,02,10,15,34,3.80
2017,02,10,15,35,3.80
2017,02,10,15,36,3.70
2017,02,10,15,37,3.70
2017,02,10,15,38,3.70
2017,02,10,15,39,3.60
2017,02,10,15,40,3.60
2017,02,10,15,41,3.60
2017,02,10,15,42,3.60
2017,02,10,15,43,3.60
2017,02,10,15,44,3.50
2017,02,10,15,45,3.50
2017,02,10,15,46,3.40
2017,02,10,15,47,3.40
2017,02,10,15,48,3.50
2017,02,10,15,49,3.50
2017,02,10,15,50,3.50
2017,02,10,15,51,3.50
2017,02,10,15,52,3.40
2017,02,10,15,53,3.30
2017,02,10,15,54,3.30
2017,02,10,15,55,3.20
2017,02,10,15,56,3.20
2017,02,10,15,57,3.10
2017,02,10,15,58,3.10
2017,02,10,15,59,3.10
2017,02,10,16,00,3.00
2017,02,10,16,01,3.00
2017,02,10,16,02,3.00
2017,02,10,16,03,3.00
2017,02,10,16,04,3.00
2017,02,10,16,05,3.00
2017,02,10,16,06,3.00
2017,02,10,16,07,3.00
2017,02,10,16,08,3.00
2017,02,10,16,09,3.00
2017,02,10,16,10,3.00
2017,02,10,16,11,3.00
2017,02,10,16,12,3.00
2017,02,10,16,13,3.00
2017,02,10,16,14,3.00
2017,02,10,16,15,3.00
2017,02,10,16,16,3.00
2017,02,10,16,17,3.00
2017,02,10,16,18,2.90
2017,02,10,16,19,2.90
2017,02,10,16,20,2.90
2017,02,10,16,21,2.90
2017,02,10,16,22,2.90
2017,02,10,16,23,2.90
2017,02,10,16,24,2.90
2017,02,10,16,25,2.90
2017,02,10,16,26,2.90
2017,02,10,16,27,2.90
2017,02,10,16,28,2.90
2017,02,10,16,29,2.80
2017,02,10,16,30,2.80
2017,02,10,16,31,2.80
2017,02,10,16,32,2.80
2017,02,10,16,33,2.80
2017,02,10,16,34,2.80
2017,02,10,16,35,2.90
2017,02,10,16,36,2.90
2017,02,10,16,37,3.00
2017,02,10,16,38,3.00
2017,02,10,16,39,3.00
2017,02,10,16,40,3.00
2017,02,10,16,41,3.00
2017,02,10,16,42,3.10
2017,02,10,16,43,3.10
2017,02,10,16,44,3.10
2017,02,10,16,45,3.10
2017,02,10,16,46,3.20
2017,02,10,16,47,3.20
2017,02,10,16,48,3.20
2017,02,10,16,49,3.20
2017,02,10,16,50,3.20
2017,02,10,16,51,3.10
2017,02,10,16,52,3.00
2017,02,10,16,53,3.00
2017,02,10,16,54,2.90
2017,02,10,16,55,2.90
2017,02,10,16,56,2.80
2017,02,10,16,57,2.80
2017,02,10,16,58,2.70
2017,02,10,16,59,2.70
2017,02,10,17,00,2.70
2017,02,10,17,01,2.70
2017,02,10,17,02,2.70
2017,02,10,17,03,2.70
2017,02,10,17,04,2.80
2017,02,10,17,05,2.80
2017,02,10,17,06,2.80
2017,02,10,17,07,2.80
2017,02,10,17,08,2.80
2017,02,10,17,09,2.80
2017,02,10,17,10,2.80
2017,02,10,17,11,2.80
2017,02,10,17,12,2.80
2017,02,10,17,13,2.80
2017,02,10,17,14,2.80
2017,02,10,17,15,2.70
2017,02,10,17,16,2.70
2017,02,10,17,17,2.80
2017,02,10,17,18,2.80
2017,02,10,17,19,2.80
2017,02,10,17,20,2.80
2017,02,10,17,21,2.80
2017,02,10,17,22,2.80
2017,02,10,17,23,2.80
2017,02,10,17,24,2.80
2017,02,10,17,25,2.80
2017,02,10,17,26,2.80
2017,02,10,17,27,2.80
2017,02,10,17,28,2.80
2017,02,10,17,29,2.80
2017,02,10,17,30,2.80
2017,02,10,17,31,2.80
2017,02,10,17,32,2.80
2017,02,10,17,33,2.80
2017,02,10,17,34,2.80
2017,02,10,17,35,2.80
2017,02,10,17,36,2.90
2017,02,10,17,37,2.90
2017,02,10,17,38,2.90
2017,02,10,17,39,2.90
2017,02,10,17,40,2.80
2017,02,10,17,41,2.80
2017,02,10,17,42,2.90
2017,02,10,17,43,2.90
2017,02,10,17,44,2.80
2017,02,10,17,45,2.80
2017,02,10,17,46,2.80
2017,02,10,17,47,2.80
2017,02,10,17,48,2.70
2017,02,10,17,49,2.70
2017,02,10,17,50,2.70
2017,02,10,17,51,2.70
2017,02,10,17,52,2.70
2017,02,10,17,53,2.70
2017,02,10,17,54,2.70
2017,02,10,17,55,2.60
2017,02,10,17,56,2.60
2017,02,10,17,57,2.60
2017,02,10,17,58,2.60
2017,02,10,17,59,2.60
2017,02,10,18,00,2.60
2017,02,10,18,01,2.60
2017,02,10,18,02,2.60
2017,02,10,18,03,2.60
2017,02,10,18,04,2.60
2017,02,10,18,05,2.60
2017,02,10,18,06,2.60
2017,02,10,18,07,2.60
2017,02,10,18,08,2.60
2017,02,10,18,09,2.60
2017,02,10,18,10,2.60
2017,02,10,18,11,2.60
2017,02,10,18,12,2.60
2017,02,10,18,13,2.70
2017,02,10,18,14,2.70
2017,02,10,18,15,2.60
2017,02,10,18,16,2.60
2017,02,10,18,17,2.60
2017,02,10,18,18,2.60
2017,02,10,18,19,2.60
2017,02,10,18,20,2.60
2017,02,10,18,21,2.60
2017,02,10,18,22,2.60
2017,02,10,18,23,2.60
2017,02,10,18,24,2.60
2017,02,10,18,25,2.60
2017,02,10,18,26,2.60
2017,02,10,18,27,2.60
2017,02,10,18,28,2.60
2017,02,10,18,29,2.60
2017,02,10,18,30,2.60
2017,02,10,18,31,2.60
2017,02,10,18,32,2.50
2017,02,10,18,33,2.50
2017,02,10,18,34,2.50
2017,02,10,18,35,2.50
2017,02,10,18,36,2.50
2017,02,10,18,37,2.50
2017,02,10,18,38,2.40
2017,02,10,18,39,2.50
2017,02,10,18,40,2.50
2017,02,10,18,41,2.60
2017,02,10,18,42,2.60
2017,02,10,18,43,2.60
2017,02,10,18,44,2.70
2017,02,10,18,45,2.70
2017,02,10,18,46,2.70
2017,02,10,18,47,2.70
2017,02,10,18,48,2.70
2017,02,10,18,49,2.70
2017,02,10,18,50,2.70
2017,02,10,18,51,2.70
2017,02,10,18,52,2.70
2017,02,10,18,53,2.70
2017,02,10,18,54,2.60
2017,02,10,18,55,2.60
2017,02,10,18,56,2.60
2017,02,10,18,57,2.60
2017,02,10,18,58,2.60
2017,02,10,18,59,2.60
2017,02,10,19,00,2.60
2017,02,10,19,01,2.60
2017,02,10,19,02,2.60
2017,02,10,19,03,2.60
2017,02,10,19,04,2.60
2017,02,10,19,05,2.70
2017,02,10,19,06,2.60
2017,02,10,19,07,2.60
2017,02,10,19,08,2.60
2017,02,10,19,09,2.60
2017,02,10,19,10,2.60
2017,02,10,19,11,2.60
2017,02,10,19,12,2.60
2017,02,10,19,13,2.50
2017,02,10,19,14,2.50
2017,02,10,19,15,2.40
2017,02,10,19,16,2.40
2017,02,10,19,17,2.40
2017,02,10,19,18,2.40
2017,02,10,19,19,2.40
2017,02,10,19,20,2.40
2017,02,10,19,21,2.40
2017,02,10,19,22,2.40
2017,02,10,19,23,2.40
2017,02,10,19,24,2.40
2017,02,10,19,25,2.40
2017,02,10,19,26,2.30
2017,02,10,19,27,2.30
2017,02,10,19,28,2.30
2017,02,10,19,29,2.30
2017,02,10,19,30,2.30
2017,02,10,19,31,2.30
2017,02,10,19,32,2.30
2017,02,10,19,33,2.30
2017,02,10,19,34,2.30
2017,02,10,19,35,2.30
2017,02,10,19,36,2.30
2017,02,10,19,37,2.30
2017,02,10,19,38,2.30
2017,02,10,19,39,2.30
2017,02,10,19,40,2.30
2017,02,10,19,41,2.30
2017,02,10,19,42,2.30
2017,02,10,19,43,2.30
2017,02,10,19,44,2.30
2017,02,10,19,45,2.30
2017,02,10,19,46,2.30
2017,02,10,19,47,2.30
2017,02,10,19,48,2.30
2017,02,10,19,49,2.30
2017,02,10,19,50,2.30
2017,02,10,19,51,2.30
2017,02,10,19,52,2.30
2017,02,10,19,53,2.30
2017,02,10,19,54,2.30
2017,02,10,19,55,2.30
2017,02,10,19,56,2.30
2017,02,10,19,57,2.20
2017,02,10,19,58,2.20
2017,02,10,19,59,2.20
2017,02,10,20,00,2.20
2017,02,10,20,01,2.10
2017,02,10,20,02,2.10
2017,02,10,20,03,2.10
2017,02,10,20,04,2.10
2017,02,10,20,05,2.10
2017,02,10,20,06,2.10
2017,02,10,20,07,2.00
2017,02,10,20,08,2.10
2017,02,10,20,09,2.10
2017,02,10,20,10,2.10
2017,02,10,20,11,2.10
2017,02,10,20,12,2.10
2017,02,10,20,13,2.20
2017,02,10,20,14,2.20
2017,02,10,20,15,2.20
2017,02,10,20,16,2.20
2017,02,10,20,17,2.30
2017,02,10,20,18,2.30
2017,02,10,20,19,2.30
2017,02,10,20,20,2.30
2017,02,10,20,21,2.30
2017,02,10,20,22,2.30
2017,02,10,20,23,2.30
2017,02,10,20,24,2.30
2017,02,10,20,25,2.30
2017,02,10,20,26,2.20
2017,02,10,20,27,2.20
2017,02,10,20,28,2.20
2017,02,10,20,29,2.20
2017,02,10,20,30,2.20
2017,02,10,20,31,2.20
2017,02,10,20,32,2.20
2017,02,10,20,33,2.20
2017,02,10,20,34,2.20
2017,02,10,20,35,2.20
2017,02,10,20,36,2.20
2017,02,10,20,37,2.20
2017,02,10,20,38,2.20
2017,02,10,20,39,2.20
2017,02,10,20,40,2.20
2017,02,10,20,41,2.20
2017,02,10,20,42,2.20
2017,02,10,20,43,2.20
2017,02,10,20,44,2.20
2017,02,10,20,45,2.20
2017,02,10,20,46,2.20
2017,02,10,20,47,2.20
2017,02,10,20,48,2.20
2017,02,10,20,49,2.20
2017,02,10,20,50,2.20
2017,02,10,20,51,2.20
2017,02,10,20,52,2.20
2017,02,10,20,53,2.20
2017,02,10,20,54,2.20
2017,02,10,20,55,2.20
2017,02,10,20,56,2.30
2017,02,10,20,57,2.30
2017,02,10,20,58,2.30
2017,02,10,20,59,2.30
2017,02,10,21,00,2.30
2017,02,10,21,01,2.30
2017,02,10,21,02,2.30
2017,02,10,21,03,2.30
2017,02,10,21,04,2.30
2017,02,10,21,05,2.30
2017,02,10,21,06,2.30
2017,02,10,21,07,2.30
2017,02,10,21,08,2.30
2017,02,10,21,09,2.20
2017,02,10,21,10,2.20
2017,02,10,21,11,2.20
2017,02,10,21,12,2.20
2017,02,10,21,13,2.20
2017,02,10,21,14,2.10
2017,02,10,21,15,2.10
2017,02,10,21,16,2.10
2017,02,10,21,17,2.00
2017,02,10,21,18,2.00
2017,02,10,21,19,2.00
2017,02,10,21,20,1.90
2017,02,10,21,21,1.90
2017,02,10,21,22,1.90
2017,02,10,21,23,1.90
2017,02,10,21,24,1.80
2017,02,10,21,25,1.80
2017,02,10,21,26,1.80
2017,02,10,21,27,1.80
2017,02,10,21,28,1.80
2017,02,10,21,29,1.80
2017,02,10,21,30,1.80
2017,02,10,21,31,1.80
2017,02,10,21,32,1.80
2017,02,10,21,33,1.80
2017,02,10,21,34,1.80
2017,02,10,21,35,1.80
2017,02,10,21,36,1.80
2017,02,10,21,37,1.80
2017,02,10,21,38,1.70
2017,02,10,21,39,1.70
2017,02,10,21,40,1.70
2017,02,10,21,41,1.70
2017,02,10,21,42,1.70
2017,02,10,21,43,1.70
2017,02,10,21,44,1.70
2017,02,10,21,45,1.70
2017,02,10,21,46,1.70
2017,02,10,21,47,1.70
2017,02,10,21,48,1.70
2017,02,10,21,49,1.70
2017,02,10,21,50,1.70
2017,02,10,21,51,1.70
2017,02,10,21,52,1.80
2017,02,10,21,53,1.80
2017,02,10,21,54,1.80
2017,02,10,21,55,1.70
2017,02,10,21,56,1.70
2017,02,10,21,57,1.70
2017,02,10,21,58,1.70
2017,02,10,21,59,1.80
2017,02,10,22,00,1.80
2017,02,10,22,01,1.80
2017,02,10,22,02,1.80
2017,02,10,22,03,1.80
2017,02,10,22,04,1.80
2017,02,10,22,05,1.90
2017,02,10,22,06,1.90
2017,02,10,22,07,1.90
2017,02,10,22,08,1.90
2017,02,10,22,09,1.90
2017,02,10,22,10,1.90
2017,02,10,22,11,1.90
2017,02,10,22,12,1.90
2017,02,10,22,13,1.90
2017,02,10,22,14,2.00
2017,02,10,22,15,2.00
2017,02,10,22,16,2.00
2017,02,10,22,17,2.00
2017,02,10,22,18,2.00
2017,02,10,22,19,2.10
2017,02,10,22,20,2.10
2017,02,10,22,21,2.10
2017,02,10,22,22,2.10
2017,02,10,22,23,2.10
2017,02,10,22,24,2.10
2017,02,10,22,25,2.10
2017,02,10,22,26,2.10
2017,02,10,22,27,2.10
2017,02,10,22,28,2.10
2017,02,10,22,29,2.10
2017,02,10,22,30,2.10
2017,02,10,22,31,2.10
2017,02,10,22,32,2.10
2017,02,10,22,33,2.10
2017,02,10,22,34,2.10
2017,02,10,22,35,2.10
2017,02,10,22,36,2.10
2017,02,10,22,37,2.00
2017,02,10,22,38,2.10
2017,02,10,22,39,2.10
2017,02,10,22,40,2.10
2017,02,10,22,41,2.10
2017,02,10,22,42,2.10
2017,02,10,22,43,2.10
2017,02,10,22,44,2.20
2017,02,10,22,45,2.20
2017,02,10,22,46,2.20
2017,02,10,22,47,2.20
2017,02,10,22,48,2.30
2017,02,10,22,49,2.20
2017,02,10,22,50,2.20
2017,02,10,22,51,2.20
2017,02,10,22,52,2.20
2017,02,10,22,53,2.20
2017,02,10,22,54,2.20
2017,02,10,22,55,2.20
2017,02,10,22,56,2.20
2017,02,10,22,57,2.20
2017,02,10,22,58,2.10
2017,02,10,22,59,2.10
2017,02,10,23,00,2.10
2017,02,10,23,01,2.10
2017,02,10,23,02,2.10
2017,02,10,23,03,2.10
2017,02,10,23,04,2.10
2017,02,10,23,05,2.10
2017,02,10,23,06,2.10
2017,02,10,23,07,2.10
2017,02,10,23,08,2.10
2017,02,10,23,09,2.10
2017,02,10,23,10,2.10
2017,02,10,23,11,2.20
2017,02,10,23,12,2.20
2017,02,10,23,13,2.20
2017,02,10,23,14,2.20
2017,02,10,23,15,2.20
2017,02,10,23,16,2.20
2017,02,10,23,17,2.20
2017,02,10,23,18,2.20
2017,02,10,23,19,2.20
2017,02,10,23,20,2.20
2017,02,10,23,21,2.20
2017,02,10,23,22,2.20
2017,02,10,23,23,2.20
2017,02,10,23,24,2.20
2017,02,10,23,25,2.20
2017,02,10,23,26,2.20
2017,02,10,23,27,2.20
2017,02,10,23,28,2.20
2017,02,10,23,29,2.10
2017,02,10,23,30,2.10
2017,02,10,23,31,2.10
2017,02,10,23,32,2.10
2017,02,10,23,33,2.10
2017,02,10,23,34,2.10
2017,02,10,23,35,2.10
2017,02,10,23,36,2.10
2017,02,10,23,37,2.10
2017,02,10,23,38,2.10
2017,02,10,23,39,2.10
2017,02,10,23,40,2.10
2017,02,10,23,41,2.10
2017,02,10,23,42,2.10
2017,02,10,23,43,2.10
2017,02,10,23,44,2.10
2017,02,10,23,45,2.10
2017,02,10,23,46,2.00
2017,02,10,23,47,2.00
2017,02,10,23,48,2.00
2017,02,10,23,49,2.00
2017,02,10,23,50,2.00
2017,02,10,23,51,2.00
2017,02,10,23,52,2.00
2017,02,10,23,53,2.00
2017,02,10,23,54,2.00
2017,02,10,23,55,2.00
2017,02,10,23,56,2.00
2017,02,10,23,57,2.00
2017,02,10,23,58,2.00
2017,02,10,23,59,2.00
